Location: New Canada
(47.1017°N, 68.5042°W)
Time: 17:43:01
(UTC+00:00)

RS-44 - Pass Details

Date: 25 April 2024
Orbit: 1174 x 1511 km, 82.5° (Epoch: 20 May)

Event Time Altitude Azimuth Distance (km) Brightness Sun altitude
Rises 02:41:04 0° 256° (WSW) 4,597 ? -24.7°
Reaches altitude 10° 02:46:10 10° 281° (WNW) 3,568 ? -25.1°
Maximum altitude 02:50:02 14° 309° (NW) 3,249 ? -25.4°
Drops below altitude 10° 02:53:49 10° 337° (NNW) 3,467 ? -25.7°
Sets 02:58:40 0° 2° (N) 4,367 ? -26.1°
